Location: Unspecified
(0.0000°N, 0.0000°E)
Time: 11:20:53
(UTC+00:00)

Vanguard 1 Rocket - Pass Details

Date: 19 November 2019
Orbit: 650 x 4226 km, 34.3° (Epoch: 13 December)

Event Time Altitude Azimuth Distance (km) Brightness Sun altitude
Rises 11:27:40 0° 300° (WNW) 5,040 11.1 70.1°
Reaches altitude 10° 11:30:19 10° 297° (WNW) 4,389 10.9 70.2°
Maximum altitude 11:43:34 72° 215° (SW) 3,134 12.4 70.5°
Drops below altitude 10° 12:07:56 10° 133° (SE) 7,362 12.3 69.8°
Sets 12:14:09 0° 131° (SE) 8,475 12.4 69.3°
